Location: Dugenta
(41.1333°N, 14.4500°E)
Time: 13:16:07
(UTC+00:00)

Lacrosse 4 Rocket - Pass Details

Date: 03 March 2021
Orbit: 537 x 620 km, 68.0° (Epoch: 14 April)

Event Time Altitude Azimuth Distance (km) Brightness Sun altitude
Rises 19:09:09 0° 212° (SSW) 2,808 5.2 -25.8°
Reaches altitude 10° 19:11:22 10° 215° (SW) 1,925 4.3 -26.2°
Enters shadow 19:14:31 46° 233° (SW) 814 2.3 -26.8°
